Location: Callamojo
(13.4228°S, 72.0364°W)
Time: 04:32:48
(UTC+00:00)

Daily predictions for brighter satellites

Satellite Brightness Start Highest point End
(mag) Time Altitude Azimuth Time Altitude Azimuth Time Altitude Azimuth
H-2A ROCKET BODY 4.5 00:05:08 10° N 00:10:29 29° NE 00:13:22 26° ENE
Cosmos 1151 Rocket 3.7 00:07:28 10° NNW 00:11:41 54° W 00:15:59 10° S
CAT/Thesee 4.4 00:05:38 10° WNW 00:13:02 45° N 00:13:21 44° NNE
ISS -2.3 00:10:53 10° WNW 00:13:57 32° SW 00:14:24 31° SW
Cosmos 2239 Rocket 4.3 00:08:42 10° S 00:14:54 75° E 00:21:00 10° N
IRIDIUM 104 4.2 00:11:09 10° S 00:16:22 68° E 00:21:32 10° N
YAOGAN 1 2.8 00:14:09 19° S 00:17:14 67° WSW 00:21:31 10° NNW
Meteor 1-26 Rocket 4.1 00:14:43 10° N 00:20:08 85° W 00:24:57 14° S
Centaur AC-119 3.7 00:15:47 10° WSW 00:21:09 31° S 00:21:09 31° S
IRIDIUM 114 4.2 00:20:15 10° S 00:25:30 87° E 00:30:43 10° N
Sich 1 4.1 00:23:32 10° SSW 00:27:45 46° W 00:31:58 10° NNW
Delta 2 Rocket 4.3 00:27:28 10° WSW 00:32:08 47° NW 00:32:20 46° NNW
Cosmos 1515 Rocket 3.9 00:27:48 10° NNW 00:32:11 63° W 00:32:14 63° W
ATLAS 3B R/B 2.6 00:27:05 10° SSW 00:34:03 82° WNW 00:40:07 13° NNE
IRIDIUM 103 4.4 00:29:23 10° S 00:34:37 73° W 00:39:49 10° N
CZ-4 R/B 4.1 00:44:17 10° SW 00:46:45 16° WSW 00:49:14 10° WNW
CSL-04 Rocket 4.4 00:52:36 44° SW 00:53:29 48° WSW 00:58:33 10° NNW
Milstar 3 4.5 01:39:27 10° W 01:48:30 54° SSW 01:48:30 54° SSW
CZ-3 R/B 4.5 05:50:13 10° WNW 07:09:05 73° SSE 07:22:03 10° ESE
Maqsat-H 3.7 08:22:42 42° NE 08:22:42 42° NE 08:25:35 10° ENE
Maqsat-B 4.0 08:52:41 50° N 08:52:41 50° N 08:56:19 10° ENE
Cosmos 1315 Rocket 4.4 09:02:45 35° ENE 09:02:45 35° ENE 09:05:50 10° NNE
CZ-4B R/B 4.1 09:02:41 10° NNE 09:05:47 39° ENE 09:05:47 39° ENE
Cosmos 2369 Rocket 4.4 09:08:56 10° SSE 09:13:15 22° ESE 09:17:30 10° ENE
CZ-3B R/B 4.3 08:59:44 10° NW 09:14:25 41° NNE 09:19:28 10° E
Cosmos 1943 Rocket 3.2 09:14:09 10° S 09:19:29 44° ESE 09:24:49 10° NE
SL-4 R/B 4.5 09:28:22 11° SSE 09:28:22 11° SSE 09:28:28 10° SSE
Cosmos-2242 4.3 09:28:31 27° NNW 09:28:31 27° NNW 09:30:37 10° N
Cosmos 1371 Rocket 4.1 09:28:31 51° WNW 09:28:31 51° WNW 09:33:05 10° N
ASC 2 Rocket 2.7 09:28:38 87° NNE 09:28:39 87° NNE 09:32:54 10° ESE
GPS 2-17 Rocket1 4.0 09:28:49 33° S 09:28:49 33° S 09:32:54 10° ESE
RESURS DK-1 2.5 09:30:03 60° NNW 09:30:03 60° NNW 09:33:32 10° N
Cosmos 1408 4.4 09:27:58 10° NNE 09:31:15 32° E 09:34:33 10° SSE
SL-23 DEB 4.1 09:32:59 48° S 09:32:59 48° S 09:36:19 10° SSE
Fermi 3.8 09:32:41 62° NNW 09:32:41 62° NNW 09:36:36 10° NE
Cosmos 2058 3.3 09:30:41 10° N 09:34:50 63° E 09:39:02 10° SSE
Cosmos 1892 2.5 09:36:48 10° N 09:40:33 85° W 09:44:21 10° S
Cosmos 494 Rocket 4.4 09:42:45 39° WSW 09:42:46 39° WSW 09:47:41 10° S
Cosmos 2297 4.1 09:41:56 37° WSW 09:43:00 41° WNW 09:48:20 10° N
Meteor PRIRODA 3.7 09:41:53 10° N 09:45:30 53° W 09:45:40 53° W
CZ-4C R/B 1.6 09:44:22 38° SW 09:45:56 63° WNW 09:50:20 10° NNE
Cosmos 2056 Rocket 3.9 09:46:04 35° WSW 09:47:05 39° W 09:52:01 10° N
Ariane H10+ 4.2 09:50:33 15° NW 09:52:56 24° N 09:57:17 10° ENE
COSMOS 2455 3.4 09:51:28 28° WSW 09:53:15 34° WNW 09:58:36 10° N
H-2A R/B 2.6 09:53:30 26° WSW 09:55:26 33° SW 09:58:04 10° SSE
H-2A R/B 2.2 09:52:21 10° N 09:56:17 73° WNW 10:00:23 10° SSW
ALOS 4.0 09:59:39 10° NW 10:01:15 15° WNW 10:01:15 15° WNW
In-Cosmos 22 Rocket 4.4 09:57:26 10° NNW 10:02:48 44° W 10:08:05 10° SSW
Cosmos 2184 Rocket 4.1 09:57:26 10° N 10:03:35 80° E 10:09:47 10° S
Cosmos 2074 Rocket 4.1 09:57:38 10° N 10:03:56 85° E 10:10:16 10° S
EPKM 3.6 10:02:43 21° SW 10:05:07 58° SSE 10:16:54 10° ENE
SAR-Lupe-4 3.6 10:03:46 10° S 10:07:15 51° WSW 10:10:43 10° NNW
ISS -3.8 10:05:36 20° SW 10:07:49 87° SE 10:11:10 10° NE
Cosmos 1452 Rocket 3.5 10:05:12 10° SSW 10:10:31 84° WNW 10:15:46 10° N
Palapa 6 Rocket 4.5 10:07:23 16° SW 10:10:43 29° S 10:14:42 10° ESE
CZ-3A R/B 3.4 10:08:22 16° SW 10:11:45 35° SSE 10:24:21 10° ESE
Cosmos 1825 2.0 10:10:42 10° N 10:14:26 82° W 10:18:14 10° S
ARGOS Delta rocket 4.5 10:10:36 10° NNE 10:14:55 53° E 10:19:13 10° S
Cosmos 482 Debris 2.7 10:14:15 10° NNW 10:16:03 62° NE 10:17:51 10° SE
Cosmos 1842 Rocket 3.5 10:14:44 10° SSW 10:19:05 64° W 10:23:21 10° N
Cosmos 1869 3.3 10:16:43 10° SSW 10:20:38 62° W 10:24:34 10° N
SMAP 3.9 10:18:44 10° NNE 10:23:15 54° ESE 10:27:49 10° S
GPS 2-15 Rocket1 4.3 10:18:47 10° NW 10:23:24 42° NNE 10:28:05 10° E
Okean O Rocket 1.7 10:23:04 10° NNE 10:27:30 83° E 10:31:58 10° S
ADEOS Rocket 3.5 10:23:01 10° S 10:29:48 61° WSW 10:37:10 10° NNW
Cosmos 2151 3.0 10:28:59 10° N 10:33:15 69° W 10:37:33 10° S
CZ-4B R/B 3.1 10:32:07 10° SW 10:34:11 15° WSW 10:36:12 10° WNW
Cosmos 1689 Rocket 2.6 10:32:41 10° S 10:35:27 36° WSW 10:38:09 10° NNW
Cosmos 1656 Rocket 3.9 10:32:07 10° SSW 10:37:39 77° ESE 10:43:04 10° NNE
CZ-4B R/B 3.3 10:35:33 10° N 10:41:09 67° WNW 10:46:48 10° SSW
SKYMED 2 3.6 10:37:27 10° S 10:41:50 89° W 10:46:10 10° NNW
COSMOS 2406 3.9 10:38:32 10° N 10:44:06 63° ENE 10:49:43 10° SSE
CZ-3 R/B 3.4 10:41:43 10° WSW 10:56:04 30° SSW 11:01:22 10° SE
Haruka 4.4 10:52:53 10° WNW 11:12:03 55° SW 11:16:43 10° SE
